This demonstration page uses our WeatherBlox Daily Observations layout. Learn more.

39.92423, -83.80882

Hourly Observations for December 25, 2019

Temp ( °F °C ) Dew Point ( °F °C ) Humidity (%) Winds ( mph kmh ) Pressure ( in mb ) Visibility ( mi km ) Precip ( " mm )
12:56 am 00:56 Clear with Mist and Fog 31 -0.6 31 -0.6 100 100 E 6 9 30.06 1018 4 6.43736 0 0
1:38 am 01:38 Clear with Mist and Fog 30 -1 30 -1 100 100 ESE 5 7 30.1 1019 2 3.21868 0 0
1:56 am 01:56 Clear with Mist and Fog 31 -0.6 31 -0.6 100 100 ESE 5 7 30.06 1018 2 3.21868 0 0
2:16 am 02:16 Clear with Mist and Fog 30 -1 30 -1 100 100 SE 6 9 30.1 1019 3 4.82802 0 0
2:56 am 02:56 Clear with Mist and Fog 32 0 32 0 100 100 E 3 6 30.07 1018 5 8.0467 0 0
3:56 am 03:56 Clear with Mist and Fog 32 0 32 0 100 100 ESE 3 6 30.06 1018 6 9.65604 0 0
4:56 am 04:56 Clear 32 0 32 0 100 100 S 6 9 30.05 1018 8 12.87472 0 0
5:56 am 05:56 Clear 32 0 32 0 100 100 SSE 7 11 30.07 1018 10 16.0934 0 0
6:56 am 06:56 Clear with Mist and Fog 30 -1.1 30 -1.1 100 100 ESE 3 6 30.09 1019 5 8.0467 0 0
7:10 am 07:10 Clear with Mist and Fog 28 -2 28 -2 100 100 ESE 5 7 30.12 1020 2 3.21868 0 0
7:26 am 07:26 Clear with Mist and Fog 28 -2 28 -2 100 100 ESE 5 7 30.13 1020 1.75 2.816345 0 0
7:31 am 07:31 Clear with Mist and Fog 28 -2 28 -2 100 100 ESE 5 7 30.13 1020 3 4.82802 0 0
7:56 am 07:56 Sunny with Mist and Fog 28 -2.2 28 -2.2 100 100 SSE 5 7 30.1 1019 2 3.21868 0 0
8:15 am 08:15 Sunny 34 1 34 1 100 100 SSE 6 9 30.11 1020 9 14.48406 0 0
8:56 am 08:56 Sunny 33 0.6 33 0.6 100 100 SSE 6 9 30.1 1019 10 16.0934 0 0
9:56 am 09:56 Sunny 42 5.6 38 3.3 85 85 S 3 6 30.1 1019 10 16.0934 0 0
10:56 am 10:56 Sunny 48 8.9 42 5.6 80 80 SW 5 7 30.09 1019 10 16.0934 0 0
11:56 am 11:56 Sunny 52 11.1 42 5.6 69 69 WSW 7 11 30.07 1018 10 16.0934 0 0
12:56 pm 12:56 Sunny 56 13.3 44 6.7 65 65 SW 8 13 30.03 1017 10 16.0934 0 0
1:56 pm 13:56 Sunny 59 15 44 6.7 58 58 W 12 19 30.02 1017 10 16.0934 0 0
2:56 pm 14:56 Sunny 61 16.1 45 7.2 56 56 W 7 11 30.03 1017 10 16.0934 0 0
3:56 pm 15:56 Sunny 60 15.6 45 7.2 58 58 SSW 8 13 30.03 1017 10 16.0934 0 0
4:56 pm 16:56 Sunny 57 13.9 44 6.7 62 62 S 6 9 30.03 1017 10 16.0934 0 0
5:56 pm 17:56 Clear 55 12.8 43 6.1 64 64 S 6 9 30.04 1017 10 16.0934 0 0
6:56 pm 18:56 Clear 52 11.1 43 6.1 72 72 S 5 7 30.04 1017 10 16.0934 0 0
7:56 pm 19:56 Clear 50 10 43 6.1 77 77 S 5 7 30.06 1018 10 16.0934 0 0
8:56 pm 20:56 Clear 51 10.6 44 6.7 77 77 S 6 9 30.06 1018 10 16.0934 0 0
9:56 pm 21:56 Clear 50 10 45 7.2 83 83 S 6 9 30.06 1018 10 16.0934 0 0
10:56 pm 22:56 Clear 50 10 45 7.2 83 83 S 7 11 30.05 1018 10 16.0934 0 0
11:56 pm 23:56 Clear 53 11.7 48 8.9 83 83 S 8 13 30.03 1017 10 16.0934 0 0

Powered by AerisWeather